TimeAKDT,TemperatureF,Dew PointF,Humidity,Sea Level PressureIn,VisibilityMPH,Wind Direction,Wind SpeedMPH,Gust SpeedMPH,PrecipitationIn,Events,Conditions,WindDirDegrees,DateUTC
12:53 AM,57.0,51.1,81,29.75,10.0,NE,5.8,-,0.00,Rain,Light Rain,50,2013-08-03 08:53:00
1:53 AM,55.9,51.1,84,29.74,10.0,NNE,8.1,-,0.00,,Overcast,20,2013-08-03 09:53:00
2:53 AM,57.0,50.0,77,29.73,10.0,NNE,8.1,-,0.00,,Mostly Cloudy,30,2013-08-03 10:53:00
3:53 AM,59.0,48.0,67,29.72,10.0,NE,9.2,-,N/A,,Mostly Cloudy,50,2013-08-03 11:53:00
4:53 AM,59.0,46.9,64,29.72,10.0,East,8.1,-,N/A,,Overcast,80,2013-08-03 12:53:00
5:53 AM,60.1,46.9,62,29.71,10.0,East,10.4,19.6,N/A,,Overcast,90,2013-08-03 13:53:00
6:53 AM,57.9,50.0,75,29.73,7.0,East,13.8,20.7,0.00,Rain,Light Rain,90,2013-08-03 14:53:00
7:53 AM,57.9,50.0,75,29.73,10.0,East,10.4,16.1,0.00,,Overcast,100,2013-08-03 15:53:00
8:53 AM,59.0,51.1,75,29.74,10.0,East,11.5,-,0.01,,Overcast,100,2013-08-03 16:53:00
9:53 AM,60.1,51.1,72,29.76,10.0,ESE,9.2,-,N/A,,Overcast,110,2013-08-03 17:53:00
10:53 AM,61.0,48.9,64,29.77,10.0,SSE,4.6,-,N/A,,Overcast,160,2013-08-03 18:53:00
11:53 AM,64.0,50.0,60,29.77,10.0,Variable,4.6,-,N/A,,Overcast,0,2013-08-03 19:53:00
12:53 PM,64.9,46.9,52,29.78,10.0,SSE,9.2,-,N/A,,Overcast,160,2013-08-03 20:53:00
1:53 PM,66.0,46.0,48,29.78,10.0,SSE,12.7,17.3,N/A,,Overcast,160,2013-08-03 21:53:00
2:53 PM,62.1,46.0,56,29.80,10.0,South,20.7,29.9,0.00,Rain,Light Rain,180,2013-08-03 22:53:00
3:53 PM,60.1,48.9,67,29.82,10.0,South,13.8,-,0.00,Rain,Light Rain,180,2013-08-03 23:53:00
4:53 PM,59.0,48.9,69,29.83,10.0,South,9.2,-,0.01,Rain,Light Rain,180,2013-08-04 00:53:00
5:53 PM,55.9,53.1,90,29.86,10.0,West,6.9,-,0.00,Rain,Light Rain,280,2013-08-04 01:53:00
6:53 PM,55.9,53.1,90,29.87,10.0,North,5.8,-,0.01,Rain,Light Rain,360,2013-08-04 02:53:00
7:53 PM,55.0,55.0,100,29.87,10.0,NNW,4.6,-,0.01,Rain,Light Rain,340,2013-08-04 03:53:00
8:53 PM,55.9,55.0,97,29.88,10.0,WNW,3.5,-,0.01,Rain,Light Rain,300,2013-08-04 04:53:00
9:53 PM,55.0,55.0,100,29.89,10.0,Calm,Calm,-,0.00,Rain,Light Rain,0,2013-08-04 05:53:00
10:53 PM,54.0,54.0,100,29.90,10.0,Calm,Calm,-,0.01,,Overcast,0,2013-08-04 06:53:00
11:53 PM,54.0,54.0,100,29.91,10.0,Calm,Calm,-,N/A,,Overcast,0,2013-08-04 07:53:00